Regional Weather Roundup
Issued by NWS

Home | Current Version | Previous Version | Text Only | Print | Product List | Glossary Off
Versions: 1 2 3 4 5 6 7 8 9 10 11 12 13 14 15 16 17 18 19 20 21 22 23 24 25 26 27 28 29 30 31 32 33 34 35 36 37 38 39 40 41 42 43 44 45 46 47 48 49 50

000
ASUS43 KMKX 230207
RWRWI

WISCONSIN REGIONAL WEATHER ROUNDUP
NATIONAL WEATHER SERVICE MILWAUKEE/SULLIVAN WI
900 PM CDT FRI MAY 22 2015

NOTE: "FAIR" INDICATES FEW OR NO CLOUDS BELOW 12,000 FEET WITH NO
SIGNIFICANT WEATHER AND/OR OBSTRUCTIONS TO VISIBILITY.

WIZ001-002-006>008-014>016-023>028-230300-
NORTHWEST WISCONSIN

CITY           SKY/WX    TMP DP  RH WIND       PRES   REMARKS
SUPERIOR ARPT  CLEAR     43  36  75 CALM      30.18R
ASHLAND        CLEAR     55  37  50 S6        30.17R
HAYWARD        CLEAR     60  37  42 CALM      30.19R
SIREN          CLEAR     61  39  43 CALM      30.19S
CUMBERLAND     CLEAR     63  36  36 S3        30.20S
RICE LAKE      CLEAR     63  39  42 S3        30.21S
CHETEK         CLEAR     60  40  46 CALM      30.20S
LADYSMITH      CLEAR     62  39  41 SW3       30.22R
EAU CLAIRE     NOT AVBL
MENOMONIE      PTCLDY    65  37  35 CALM      30.20S
NEW RICHMOND   PTCLDY    63  38  40 CALM      30.20S
OSCEOLA        PTCLDY    64  40  42 SE3       30.21S
$$

WIZ003>005-009-010-017-018-230300-
NORTH CENTRAL WISCONSIN

CITY           SKY/WX    TMP DP  RH WIND       PRES   REMARKS
MANITOWISH WTR CLEAR     53  35  50 CALM      30.20S
ARBOR VITAE    CLEAR     57  31  37 CALM      30.21R
WOODRUFF       CLEAR     57  31  37 CALM      30.21R
RHINELANDER    CLEAR     52  31  44 CALM      30.22R
EAGLE RIVER    CLEAR     54  25  31 CALM      30.21R
LAND O LAKES   CLEAR     50  33  51 CALM      30.22S
PHILLIPS       CLEAR     57  34  42 CALM      30.20R
TOMAHAWK       CLEAR     53  33  47 CALM      30.21R
MEDFORD        CLEAR     57  38  48 SW3       30.21S
MERRILL        CLEAR     58  39  49 CALM      30.22R
$$

WIZ029-030-035-036-043>047-230300-
CENTRAL WISCONSIN

CITY           SKY/WX    TMP DP  RH WIND       PRES   REMARKS
WAUSAU         CLEAR     61  39  44 SW3       30.20R
MOSINEE        NOT AVBL
MARSHFIELD     PTCLDY    61  36  39 CALM      30.22R
STEVENS POINT  PTCLDY    57  37  48 CALM      30.22S
WAUPACA        PTCLDY    60  38  44 CALM      30.22R
WAUTOMA        NOT AVBL
WISC RAPIDS    LGT RAIN  60  34  37 CALM      30.23R
CAMP DOUGLAS   NOT AVBL
$$

WIZ011>013-019>022-031-037>040-048>050-230300-
NORTHEAST WISCONSIN

CITY           SKY/WX    TMP DP  RH WIND       PRES   REMARKS
ANTIGO         CLEAR     57  35  44 CALM      30.22R
SHAWANO        CLEAR     60  35  38 SE8       30.21R
OCONTO         CLEAR     51  32  48 SE5       30.23R
STURGEON BAY   CLEAR     46  21  36 SE9       30.28R
GREEN BAY      PTCLDY    54  30  40 S8        30.24R
MANITOWOC      NOT AVBL
APPLETON       PTCLDY    55  34  44 SE10      30.24R
CLINTONVILLE   PTCLDY    63  32  31 SW3       30.21R
OSHKOSH        MOCLDY    53  31  42 S12       30.25R
$$

WIZ032>034-041-042-053>061-230300-
SOUTHWEST WISCONSIN

CITY           SKY/WX    TMP DP  RH WIND       PRES   REMARKS
LA CROSSE      CLOUDY    63  41  44 NE3       30.19S
SPARTA         CLOUDY    59  43  54 CALM      30.22S
VIROQUA        CLOUDY    62  38  41 E3        30.21S
BOSCOBEL       CLOUDY    59  48  67 CALM      30.20S
PRAIRIE DU CHI CLOUDY    64  44  46 CALM      30.19R
PLATTEVILLE    CLOUDY    68  35  29 CALM      30.21S
$$

WIZ056-057-062-063-064-067-068-230300-
SOUTH CENTRAL WISCONSIN

CITY           SKY/WX    TMP DP  RH WIND       PRES   REMARKS
REEDSBURG      CLOUDY    62  42  48 CALM      30.21R
BARABOO/DELLS  CLOUDY    57  40  51 CALM      30.22R
LONE ROCK      NOT AVBL
MINERAL POINT  CLOUDY    68  32  26 CALM      30.21F
MADISON        CLOUDY    61  40  45 SE13      30.23R
MIDDLETON      CLOUDY    62  39  42 CALM      30.22S
WATERTOWN      MOCLDY    57  35  42 SE7       30.25R
MONROE         CLOUDY    64  41  42 CALM      30.22S
JANESVILLE     CLEAR     61  32  33 E9        30.24R
$$

WIZ051-052-058>065-066-070>072-230300-
SOUTHEAST WISCONSIN

CITY           SKY/WX    TMP DP  RH WIND       PRES   REMARKS
MILWAUKEE      MOCLDY    48  29  47 S7        30.29R
WAUKESHA       MOCLDY    50  25  37 SE8       30.29R
MILWAUKEE/TIMM CLEAR     50  21  32 S5        30.29S
RACINE         MOCLDY    48  30  49 SE5       30.30R
BURLINGTON     CLOUDY    51  25  36 E7        30.28R
KENOSHA        CLOUDY    48  29  47 E7        30.29R
FOND DU LAC    MOCLDY    53  26  35 SE10      30.25R
SHEBOYGAN      PTCLDY    46  27  47 S8        30.28R
WEST BEND      MOCLDY    48  21  34 SE3       30.27S
JUNEAU         HAZE      55  32  42 E9        30.26R VSB 3/4
$$

LSZ147-162-230300-
LAKE SUPERIOR

STATION/POSITION TIME  TEMP    WIND        PRES    WAVE
                       AIR SEA DIR/SP/G            HT/PER
                 (UTC) (F)     (DEG/KT/KT) (MB)    (FT/S)
W MID LAKE BUOY  0050   41 37   CALM  /  2   N/A     0
DEVILS ISLAND    0100   43      80/  6/  7   N/A
PORT WING        0100   42      20/  7/  8   N/A
SAXON HARBOR     0100   62      CALM  /  1   N/A
$$

LMZ867-665-643>646-230300-
LAKE MICHIGAN

STATION/POSITION TIME  TEMP    WIND        PRES    WAVE
                       AIR SEA DIR/SP/G            HT/PER
                 (UTC) (F)     (DEG/KT/KT) (MB)    (FT/S)
CHAMBERS ISLAND  0100   51     110/  4/  6   N/A
N MID LAKE BUOY  0050   40 36  200/  6/  8   N/A     0
NORTHPORT PIER   0100   49     150/  7/ 10   N/A
SISTER BAY       0117   47     130/  7/  9   N/A
KEWAUNEE LAKESHO 0100   46     170/  7/  8   N/A
SHEBOYGAN LAKESH 0100          190/ 11/ 11   N/A
PORT WASHINGTON  0140   48     190/  2/  4   N/A
ATWATER BUOY     0100   46 45  150/  4/  6   N/A
MILWAUKEE LAKESH 0100   46     100/  1/  2   N/A
S MID LAKE BUOY  0050   42 38  140/  6/  6   N/A     0
KENOSHA   LAKESH 0100   48     110/  4/  5   N/A
$$

TC  - TEMPERATURE IN CELSIUS
VSB - VISIBILITY IN STATUTE MILES
WCI - WIND CHILL INDEX
HX  - HEAT INDEX




USA.gov is the U.S. government's official web portal to all federal, state and local government web resources and services.